| time (UTC) | temp C | wind direction | speed KPH | gust KPH | rain 1hr cm | rain 24hr cm | rain mn cm | humidity % | barometer mb |
| 20260504201517 | 25 | 153 | 9.7 | 20.9 | 0.00 | 0.00 | 0.00 | 33 | 1010.3 |
| 20260504201008 | 25 | 349 | 9.7 | 20.9 | 0.00 | 0.00 | 0.00 | 33 | 1010.6 |
| 20260504200507 | 25 | 189 | 4.8 | 17.7 | 0.00 | 0.00 | 0.00 | 33 | 1010.5 |
| 20260504200024 | 25 | 167 | 4.8 | 19.3 | 0.00 | 0.00 | 0.00 | 33 | 1010.7 |
| 20260504195506 | 25 | 271 | 8.0 | 19.3 | 0.00 | 0.00 | 0.00 | 31 | 1010.8 |
| 20260504195007 | 25 | 157 | 6.4 | 19.3 | 0.00 | 0.00 | 0.00 | 32 | 1010.8 |
| 20260504194513 | 25 | 281 | 9.7 | 17.7 | 0.00 | 0.00 | 0.00 | 33 | 1010.9 |
| 20260504194005 | 25 | 263 | 4.8 | 25.7 | 0.00 | 0.00 | 0.00 | 34 | 1011.0 |
| 20260504193509 | 25 | 232 | 11.3 | 25.7 | 0.00 | 0.00 | 0.00 | 33 | 1010.9 |
| 20260504193022 | 24 | 301 | 3.2 | 17.7 | 0.00 | 0.00 | 0.00 | 34 | 1011.1 |
| 20260504192502 | 24 | 136 | 1.6 | 20.9 | 0.00 | 0.00 | 0.00 | 33 | 1011.2 |
| 20260504192007 | 24 | 281 | 6.4 | 24.1 | 0.00 | 0.00 | 0.00 | 34 | 1011.2 |
| 20260504191516 | 24 | 228 | 8.0 | 24.1 | 0.00 | 0.00 | 0.00 | 33 | 1011.3 |
| 20260504191007 | 24 | 180 | 8.0 | 24.1 | 0.00 | 0.00 | 0.00 | 33 | 1011.3 |
| 20260504190504 | 24 | 304 | 6.4 | 24.1 | 0.00 | 0.00 | 0.00 | 35 | 1011.4 |
| 20260504190018 | 24 | 205 | 4.8 | 24.1 | 0.00 | 0.00 | 0.00 | 35 | 1011.5 |
| 20260504185506 | 24 | 157 | 6.4 | 19.3 | 0.00 | 0.00 | 0.00 | 34 | 1011.6 |
| 20260504185006 | 24 | 232 | 6.4 | 17.7 | 0.00 | 0.00 | 0.00 | 34 | 1011.6 |
| 20260504184533 | 24 | 136 | 8.0 | 27.4 | 0.00 | 0.00 | 0.00 | 33 | 1011.8 |
| 20260504184011 | 24 | 302 | 9.7 | 27.4 | 0.00 | 0.00 | 0.00 | 32 | 1012.0 |
| 20260504183513 | 24 | 224 | 6.4 | 19.3 | 0.00 | 0.00 | 0.00 | 33 | 1012.1 |
| 20260504183025 | 25 | 169 | 3.2 | 19.3 | 0.00 | 0.00 | 0.00 | 34 | 1012.1 |
| 20260504182511 | 25 | 285 | 6.4 | 19.3 | 0.00 | 0.00 | 0.00 | 32 | 1012.2 |
| 20260504182008 | 25 | 209 | 3.2 | 14.5 | 0.00 | 0.00 | 0.00 | 34 | 1012.2 |
| 20260504181516 | 24 | 174 | 4.8 | 14.5 | 0.00 | 0.00 | 0.00 | 32 | 1012.2 |
| 20260504181006 | 24 | 270 | 6.4 | 20.9 | 0.00 | 0.00 | 0.00 | 33 | 1012.2 |
| 20260504180506 | 24 | 230 | 6.4 | 20.9 | 0.00 | 0.00 | 0.00 | 30 | 1012.4 |
| 20260504180018 | 23 | 186 | 3.2 | 17.7 | 0.00 | 0.00 | 0.00 | 32 | 1012.3 |
| 20260504175507 | 23 | 216 | 6.4 | 24.1 | 0.00 | 0.00 | 0.00 | 33 | 1012.5 |
| 20260504175006 | 23 | 254 | 12.9 | 24.1 | 0.00 | 0.00 | 0.00 | 31 | 1012.6 |
| 20260504174522 | 23 | 214 | 6.4 | 22.5 | 0.00 | 0.00 | 0.00 | 33 | 1012.5 |
| 20260504174009 | 23 | 201 | 8.0 | 22.5 | 0.00 | 0.00 | 0.00 | 33 | 1012.6 |
| 20260504173511 | 23 | 221 | 6.4 | 14.5 | 0.00 | 0.00 | 0.00 | 32 | 1012.8 |
| 20260504173022 | 23 | 191 | 4.8 | 16.1 | 0.00 | 0.00 | 0.00 | 32 | 1012.8 |
| 20260504172510 | 23 | 238 | 4.8 | 24.1 | 0.00 | 0.00 | 0.00 | 32 | 1012.8 |
| 20260504172011 | 23 | 194 | 9.7 | 24.1 | 0.00 | 0.00 | 0.00 | 34 | 1012.9 |
| 20260504171528 | 23 | 204 | 8.0 | 16.1 | 0.00 | 0.00 | 0.00 | 33 | 1013.0 |
| 20260504171016 | 23 | 195 | 4.8 | 16.1 | 0.00 | 0.00 | 0.00 | 34 | 1013.0 |
| 20260504170508 | 23 | 252 | 8.0 | 19.3 | 0.00 | 0.00 | 0.00 | 35 | 1013.1 |
| 20260504151004 | 21 | 151 | 6.4 | 16.1 | 0.00 | 0.00 | 0.00 | 35 | 1014.4 |
| 20260504150508 | 21 | 196 | 1.6 | 12.9 | 0.00 | 0.00 | 0.00 | 37 | 1014.4 |
| 20260504141004 | 19 | 221 | 4.8 | 11.3 | 0.00 | 0.00 | 0.00 | 42 | 1014.6 |
| 20260504140507 | 18 | 216 | 4.8 | 11.3 | 0.00 | 0.00 | 0.00 | 43 | 1014.6 |
| 20260504130507 | 16 | 211 | 8.0 | 20.9 | 0.00 | 0.00 | 0.00 | 49 | 1015.0 |
| 20260504110506 | 8 | 227 | 0.0 | 6.4 | 0.00 | 0.00 | 0.00 | 77 | 1015.4 |
| 20260504100506 | 8 | 175 | 1.6 | 6.4 | 0.00 | 0.00 | 0.00 | 77 | 1015.5 |
| 20260504081540 | 7 | 246 | 0.0 | 3.2 | 0.00 | 0.00 | 0.00 | 82 | 1015.9 |
| 20260504081011 | 7 | 246 | 0.0 | 1.6 | 0.00 | 0.00 | 0.00 | 82 | 1015.8 |
| 20260504080510 | 7 | 246 | 0.0 | 3.2 | 0.00 | 0.00 | 0.00 | 81 | 1015.9 |
| 20260504050504 | 4 | 190 | 0.0 | 0.0 | 0.00 | 0.00 | 0.00 | 84 | 1016.1 |
| 20260504050014 | 4 | 190 | 0.0 | 0.0 | 0.00 | 0.00 | 0.00 | 83 | 1016.1 |
| 20260504045502 | 4 | 190 | 0.0 | 0.0 | 0.00 | 0.00 | 0.00 | 83 | 1016.1 |
| 20260504045003 | 4 | 190 | 0.0 | 0.0 | 0.00 | 0.00 | 0.00 | 83 | 1016.1 |
| 20260504044508 | 4 | 190 | 0.0 | 0.0 | 0.00 | 0.00 | 0.00 | 83 | 1016.2 |
| 20260504044003 | 4 | 190 | 0.0 | 0.0 | 0.00 | 0.00 | 0.00 | 84 | 1016.2 |
| 20260504043504 | 4 | 190 | 0.0 | 0.0 | 0.00 | 0.00 | 0.00 | 84 | 1016.2 |
| 20260504043033 | 4 | 190 | 0.0 | 0.0 | 0.00 | 0.00 | 0.00 | 83 | 1016.2 |
| 20260504042505 | 4 | 190 | 0.0 | 0.0 | 0.00 | 0.00 | 0.00 | 83 | 1016.1 |
| 20260504042009 | 4 | 190 | 0.0 | 0.0 | 0.00 | 0.00 | 0.00 | 82 | 1016.2 |
| 20260504041506 | 5 | 190 | 0.0 | 0.0 | 0.00 | 0.00 | 0.00 | 82 | 1016.1 |
| 20260504041003 | 5 | 190 | 0.0 | 0.0 | 0.00 | 0.00 | 0.00 | 82 | 1016.1 |
| 20260504040508 | 5 | 190 | 0.0 | 0.0 | 0.00 | 0.00 | 0.00 | 82 | 1016.0 |
| 20260504040022 | 5 | 190 | 0.0 | 0.0 | 0.00 | 0.00 | 0.00 | 81 | 1016.1 |
| 20260504035505 | 5 | 190 | 0.0 | 0.0 | 0.00 | 0.00 | 0.00 | 81 | 1016.1 |
| 20260504035004 | 5 | 190 | 0.0 | 0.0 | 0.00 | 0.00 | 0.00 | 81 | 1016.1 |
| 20260504034506 | 5 | 190 | 0.0 | 0.0 | 0.00 | 0.00 | 0.00 | 81 | 1015.9 |
| 20260504034004 | 5 | 190 | 0.0 | 0.0 | 0.00 | 0.00 | 0.00 | 80 | 1015.9 |
| 20260504033501 | 5 | 190 | 0.0 | 3.2 | 0.00 | 0.00 | 0.00 | 79 | 1015.8 |
| 20260504033012 | 5 | 190 | 0.0 | 3.2 | 0.00 | 0.00 | 0.00 | 79 | 1015.8 |
| 20260504032504 | 5 | 197 | 0.0 | 1.6 | 0.00 | 0.00 | 0.00 | 78 | 1015.7 |
| 20260504032010 | 5 | 197 | 0.0 | 0.0 | 0.00 | 0.00 | 0.00 | 77 | 1015.6 |
| 20260504031516 | 5 | 197 | 0.0 | 0.0 | 0.00 | 0.00 | 0.00 | 76 | 1015.5 |
| 20260504031009 | 6 | 197 | 0.0 | 0.0 | 0.00 | 0.00 | 0.00 | 76 | 1015.4 |
| 20260504030505 | 6 | 197 | 0.0 | 0.0 | 0.00 | 0.00 | 0.00 | 75 | 1015.3 |
| 20260504030026 | 6 | 197 | 0.0 | 0.0 | 0.00 | 0.00 | 0.00 | 74 | 1015.5 |
| 20260504025503 | 6 | 197 | 0.0 | 0.0 | 0.00 | 0.00 | 0.00 | 73 | 1015.5 |
| 20260504025002 | 6 | 197 | 0.0 | 0.0 | 0.00 | 0.00 | 0.00 | 73 | 1015.4 |
| 20260504024514 | 6 | 197 | 0.0 | 0.0 | 0.00 | 0.00 | 0.00 | 73 | 1015.5 |
| 20260504024007 | 6 | 197 | 0.0 | 0.0 | 0.00 | 0.00 | 0.00 | 72 | 1015.4 |
| 20260504023503 | 6 | 197 | 0.0 | 0.0 | 0.00 | 0.00 | 0.00 | 71 | 1015.5 |
| 20260504023010 | 7 | 197 | 0.0 | 0.0 | 0.00 | 0.00 | 0.00 | 70 | 1015.5 |
| 20260504022502 | 7 | 197 | 0.0 | 0.0 | 0.00 | 0.00 | 0.00 | 68 | 1015.5 |
| 20260504022007 | 7 | 197 | 0.0 | 0.0 | 0.00 | 0.00 | 0.00 | 68 | 1015.6 |
| 20260504021508 | 7 | 197 | 0.0 | 0.0 | 0.00 | 0.00 | 0.00 | 68 | 1015.6 |
| 20260504021003 | 7 | 197 | 0.0 | 0.0 | 0.00 | 0.00 | 0.00 | 68 | 1015.5 |
| 20260504020502 | 7 | 197 | 0.0 | 0.0 | 0.00 | 0.00 | 0.00 | 67 | 1015.4 |
| 20260504020019 | 7 | 197 | 0.0 | 0.0 | 0.00 | 0.00 | 0.00 | 66 | 1015.4 |
| 20260504015509 | 8 | 197 | 0.0 | 0.0 | 0.00 | 0.00 | 0.00 | 64 | 1015.3 |
| 20260504015011 | 8 | 197 | 0.0 | 0.0 | 0.00 | 0.00 | 0.00 | 63 | 1015.5 |
| 20260504014533 | 8 | 197 | 0.0 | 0.0 | 0.00 | 0.00 | 0.00 | 62 | 1015.4 |
| 20260504014009 | 8 | 197 | 0.0 | 0.0 | 0.00 | 0.00 | 0.00 | 60 | 1015.5 |
| 20260504013507 | 8 | 197 | 0.0 | 0.0 | 0.00 | 0.00 | 0.00 | 59 | 1015.3 |
| 20260504013027 | 9 | 197 | 0.0 | 0.0 | 0.00 | 0.00 | 0.00 | 59 | 1015.3 |
| 20260504012504 | 9 | 197 | 0.0 | 0.0 | 0.00 | 0.00 | 0.00 | 58 | 1015.3 |
| 20260504012003 | 9 | 197 | 0.0 | 0.0 | 0.00 | 0.00 | 0.00 | 56 | 1015.2 |
| 20260504011510 | 10 | 197 | 0.0 | 0.0 | 0.00 | 0.00 | 0.00 | 55 | 1015.2 |
| 20260504011002 | 10 | 197 | 0.0 | 0.0 | 0.00 | 0.00 | 0.00 | 54 | 1015.2 |
| 20260504010503 | 10 | 197 | 0.0 | 0.0 | 0.00 | 0.00 | 0.00 | 53 | 1015.1 |
| 20260504010014 | 10 | 197 | 0.0 | 0.0 | 0.00 | 0.00 | 0.00 | 52 | 1015.1 |
| 20260504005510 | 11 | 197 | 0.0 | 0.0 | 0.00 | 0.00 | 0.00 | 51 | 1015.0 |
| 20260504005006 | 11 | 197 | 0.0 | 0.0 | 0.00 | 0.00 | 0.00 | 49 | 1015.0 |
| 20260504004514 | 11 | 197 | 0.0 | 0.0 | 0.00 | 0.00 | 0.00 | 48 | 1015.0 |
| 20260504004008 | 11 | 197 | 0.0 | 0.0 | 0.00 | 0.00 | 0.00 | 48 | 1015.0 |
| 20260504003509 | 12 | 197 | 0.0 | 0.0 | 0.00 | 0.00 | 0.00 | 47 | 1014.9 |
| 20260504003024 | 12 | 197 | 0.0 | 1.6 | 0.00 | 0.00 | 0.00 | 46 | 1014.9 |
| 20260504002512 | 12 | 197 | 0.0 | 1.6 | 0.00 | 0.00 | 0.00 | 46 | 1014.8 |
| 20260504002002 | 12 | 197 | 0.0 | 0.0 | 0.00 | 0.00 | 0.00 | 45 | 1014.7 |
| 20260504001505 | 13 | 197 | 0.0 | 0.0 | 0.00 | 0.00 | 0.00 | 44 | 1014.7 |
| 20260504001004 | 13 | 197 | 0.0 | 0.0 | 0.00 | 0.00 | 0.00 | 43 | 1014.7 |
| 20260504000504 | 13 | 197 | 0.0 | 1.6 | 0.00 | 0.00 | 0.00 | 42 | 1014.6 |
| 20260504000007 | 13 | 197 | 0.0 | 3.2 | 0.00 | 0.00 | 0.00 | 41 | 1014.6 |
| 20260503235504 | 14 | 197 | 0.0 | 3.2 | 0.00 | 0.00 | 0.00 | 40 | 1014.6 |
| 20260503235004 | 14 | 218 | 0.0 | 3.2 | 0.00 | 0.00 | 0.00 | 38 | 1014.5 |
| 20260503234504 | 15 | 218 | 0.0 | 3.2 | 0.00 | 0.00 | 0.00 | 38 | 1014.5 |
| 20260503234004 | 15 | 201 | 0.0 | 8.0 | 0.00 | 0.00 | 0.00 | 37 | 1014.4 |
| 20260503233504 | 15 | 201 | 0.0 | 8.0 | 0.00 | 0.00 | 0.00 | 36 | 1014.3 |
| 20260503233018 | 15 | 236 | 0.0 | 6.4 | 0.00 | 0.00 | 0.00 | 34 | 1014.3 |
| 20260503232502 | 15 | 279 | 0.0 | 6.4 | 0.00 | 0.00 | 0.00 | 33 | 1014.2 |
| 20260503232006 | 16 | 287 | 0.0 | 6.4 | 0.00 | 0.00 | 0.00 | 33 | 1014.2 |
| 20260503231504 | 16 | 21 | 1.6 | 16.1 | 0.00 | 0.00 | 0.00 | 33 | 1014.2 |
| 20260503231003 | 16 | 288 | 6.4 | 16.1 | 0.00 | 0.00 | 0.00 | 32 | 1014.2 |
| 20260503230507 | 16 | 258 | 3.2 | 12.9 | 0.00 | 0.00 | 0.00 | 31 | 1014.1 |
| 20260503230008 | 16 | 181 | 3.2 | 16.1 | 0.00 | 0.00 | 0.00 | 31 | 1014.1 |
| 20260503225503 | 16 | 337 | 3.2 | 16.1 | 0.00 | 0.00 | 0.00 | 30 | 1014.2 |
| 20260503225003 | 16 | 150 | 4.8 | 16.1 | 0.00 | 0.00 | 0.00 | 30 | 1014.2 |
| 20260503224509 | 16 | 296 | 3.2 | 20.9 | 0.00 | 0.00 | 0.00 | 31 | 1014.3 |
| 20260503224003 | 16 | 336 | 3.2 | 20.9 | 0.00 | 0.00 | 0.00 | 30 | 1014.3 |
| 20260503223502 | 16 | 327 | 8.0 | 19.3 | 0.00 | 0.00 | 0.00 | 30 | 1014.3 |
| 20260503223007 | 16 | 344 | 4.8 | 16.1 | 0.00 | 0.00 | 0.00 | 31 | 1014.2 |
| 20260503222504 | 17 | 267 | 4.8 | 20.9 | 0.00 | 0.00 | 0.00 | 29 | 1014.2 |
| 20260503222006 | 17 | 234 | 9.7 | 20.9 | 0.00 | 0.00 | 0.00 | 29 | 1014.1 |
| 20260503221511 | 17 | 317 | 6.4 | 16.1 | 0.00 | 0.00 | 0.00 | 30 | 1014.1 |
| 20260503221009 | 17 | 274 | 4.8 | 14.5 | 0.00 | 0.00 | 0.00 | 30 | 1014.1 |
| 20260503220504 | 17 | 309 | 4.8 | 24.1 | 0.00 | 0.00 | 0.00 | 29 | 1014.3 |
| 20260503220006 | 18 | 342 | 3.2 | 24.1 | 0.00 | 0.00 | 0.00 | 28 | 1014.3 |
| 20260503215503 | 18 | 335 | 9.7 | 19.3 | 0.00 | 0.00 | 0.00 | 28 | 1014.4 |
| 20260503215003 | 18 | 331 | 6.4 | 20.9 | 0.00 | 0.00 | 0.00 | 28 | 1014.3 |
| 20260503214512 | 18 | 212 | 8.0 | 20.9 | 0.00 | 0.00 | 0.00 | 29 | 1014.3 |
| 20260503214003 | 17 | 315 | 6.4 | 20.9 | 0.00 | 0.00 | 0.00 | 29 | 1014.2 |
| 20260503213503 | 17 | 336 | 9.7 | 20.9 | 0.00 | 0.00 | 0.00 | 29 | 1014.3 |
| 20260503213011 | 17 | 275 | 9.7 | 25.7 | 0.00 | 0.00 | 0.00 | 29 | 1014.2 |
| 20260503212504 | 17 | 331 | 4.8 | 25.7 | 0.00 | 0.00 | 0.00 | 29 | 1014.0 |
| 20260503212005 | 17 | 267 | 9.7 | 19.3 | 0.00 | 0.00 | 0.00 | 29 | 1014.2 |
| 20260503211514 | 17 | 210 | 6.4 | 20.9 | 0.00 | 0.00 | 0.00 | 29 | 1014.2 |
| 20260503211004 | 17 | 256 | 4.8 | 20.9 | 0.00 | 0.00 | 0.00 | 30 | 1014.3 |
| 20260503210506 | 17 | 283 | 8.0 | 20.9 | 0.00 | 0.00 | 0.00 | 30 | 1014.2 |
| 20260503210008 | 17 | 347 | 6.4 | 20.9 | 0.00 | 0.00 | 0.00 | 31 | 1014.3 |
| 20260503205503 | 17 | 187 | 6.4 | 20.9 | 0.00 | 0.00 | 0.00 | 31 | 1014.3 |
| 20260503205003 | 17 | 288 | 4.8 | 20.9 | 0.00 | 0.00 | 0.00 | 31 | 1014.2 |
| 20260503204508 | 17 | 263 | 9.7 | 20.9 | 0.00 | 0.00 | 0.00 | 33 | 1014.3 |
| 20260503204004 | 17 | 274 | 8.0 | 30.6 | 0.00 | 0.00 | 0.00 | 31 | 1014.3 |
| 20260503203507 | 17 | 315 | 14.5 | 30.6 | 0.00 | 0.00 | 0.00 | 33 | 1014.4 |
| 20260503203035 | 16 | 262 | 4.8 | 19.3 | 0.00 | 0.00 | 0.00 | 34 | 1014.4 |
| 20260503202507 | 16 | 311 | 8.0 | 19.3 | 0.00 | 0.00 | 0.00 | 33 | 1014.6 |
| 20260503202004 | 16 | 305 | 8.0 | 22.5 | 0.00 | 0.00 | 0.00 | 32 | 1014.6 |